| time (UTC) | temp F | wind direction | speed MPH | gust MPH | rain 1hr in | rain 24hr in | rain mn in | humidity % | barometer mb |
| 20260904225020 | 69 | 0 | 4.0 | 7.0 | 0.00 | 0.00 | 0.00 | 65 | 1013.5 |
| 20260904224020 | 69 | 0 | 4.0 | 8.0 | 0.00 | 0.00 | 0.00 | 65 | 1013.4 |
| 20260904223019 | 69 | 0 | 3.0 | 5.0 | 0.00 | 0.00 | 0.00 | 66 | 1013.5 |
| 20260904222019 | 68 | 0 | 4.0 | 7.0 | 0.00 | 0.00 | 0.00 | 65 | 1013.5 |
| 20260904221019 | 68 | 0 | 5.0 | 8.0 | 0.00 | 0.00 | 0.00 | 65 | 1013.5 |
| 20260904220019 | 68 | 315 | 2.0 | 4.0 | 0.00 | 0.00 | 0.00 | 68 | 1013.4 |
| 20260904215019 | 68 | 315 | 1.0 | 4.0 | 0.00 | 0.00 | 0.00 | 68 | 1013.4 |
| 20260904214019 | 68 | 293 | 1.0 | 3.0 | 0.00 | 0.00 | 0.00 | 67 | 1013.1 |
| 20260904213020 | 68 | 293 | 0.0 | 1.0 | 0.00 | 0.00 | 0.00 | 66 | 1013.1 |
| 20260904212059 | 68 | 315 | 2.0 | 4.0 | 0.00 | 0.00 | 0.00 | 69 | 1013.0 |
| 20260904211018 | 68 | 338 | 2.0 | 5.0 | 0.00 | 0.00 | 0.00 | 67 | 1013.1 |
| 20260904210059 | 68 | 315 | 2.0 | 5.0 | 0.00 | 0.00 | 0.00 | 67 | 1013.1 |
| 20260904205019 | 68 | 315 | 3.0 | 5.0 | 0.00 | 0.00 | 0.00 | 68 | 1013.1 |
| 20260904204019 | 68 | 315 | 2.0 | 6.0 | 0.00 | 0.00 | 0.00 | 66 | 1013.2 |
| 20260904203019 | 68 | 293 | 1.0 | 5.0 | 0.00 | 0.00 | 0.00 | 68 | 1013.2 |
| 20260904202019 | 68 | 315 | 4.0 | 7.0 | 0.00 | 0.00 | 0.00 | 69 | 1013.2 |
| 20260904201059 | 67 | 293 | 3.0 | 7.0 | 0.00 | 0.00 | 0.00 | 70 | 1013.2 |
| 20260904200019 | 66 | 293 | 3.0 | 8.0 | 0.00 | 0.00 | 0.00 | 71 | 1013.4 |
| 20260904195019 | 66 | 293 | 4.0 | 6.0 | 0.00 | 0.00 | 0.00 | 71 | 1013.4 |
| 20260904194059 | 66 | 293 | 5.0 | 7.0 | 0.00 | 0.00 | 0.00 | 71 | 1013.4 |
| 20260904193019 | 67 | 315 | 4.0 | 6.0 | 0.00 | 0.00 | 0.00 | 71 | 1013.4 |
| 20260904192019 | 67 | 293 | 4.0 | 6.0 | 0.00 | 0.00 | 0.00 | 69 | 1013.4 |
| 20260904191019 | 67 | 315 | 4.0 | 6.0 | 0.00 | 0.00 | 0.00 | 69 | 1013.4 |
| 20260904190019 | 68 | 315 | 4.0 | 6.0 | 0.00 | 0.00 | 0.00 | 69 | 1013.3 |
| 20260904185018 | 68 | 315 | 3.0 | 6.0 | 0.00 | 0.00 | 0.00 | 68 | 1013.2 |
| 20260904184019 | 68 | 315 | 4.0 | 7.0 | 0.00 | 0.00 | 0.00 | 67 | 1013.0 |
| 20260904183019 | 68 | 293 | 2.0 | 7.0 | 0.00 | 0.00 | 0.00 | 69 | 1012.9 |
| 20260904182019 | 68 | 315 | 5.0 | 9.0 | 0.00 | 0.00 | 0.00 | 70 | 1012.9 |
| 20260904181019 | 67 | 293 | 3.0 | 7.0 | 0.00 | 0.00 | 0.00 | 70 | 1012.8 |
| 20260904180018 | 66 | 315 | 5.0 | 9.0 | 0.00 | 0.00 | 0.00 | 75 | 1012.7 |
| 20260904175018 | 65 | 315 | 5.0 | 8.0 | 0.00 | 0.00 | 0.00 | 76 | 1012.6 |
| 20260904174018 | 65 | 315 | 4.0 | 7.0 | 0.00 | 0.00 | 0.00 | 78 | 1012.9 |
| 20260904173019 | 64 | 315 | 3.0 | 6.0 | 0.00 | 0.00 | 0.00 | 80 | 1012.8 |
| 20260904172018 | 63 | 315 | 5.0 | 7.0 | 0.00 | 0.00 | 0.00 | 84 | 1012.8 |
| 20260904171018 | 62 | 315 | 3.0 | 6.0 | 0.00 | 0.00 | 0.00 | 85 | 1012.9 |
| 20260904170019 | 61 | 315 | 3.0 | 6.0 | 0.00 | 0.00 | 0.00 | 86 | 1012.9 |
| 20260904165018 | 60 | 315 | 4.0 | 7.0 | 0.00 | 0.00 | 0.00 | 87 | 1012.9 |
| 20260904164019 | 60 | 293 | 4.0 | 7.0 | 0.00 | 0.00 | 0.00 | 87 | 1012.9 |
| 20260904163018 | 60 | 293 | 3.0 | 6.0 | 0.00 | 0.00 | 0.00 | 87 | 1012.8 |
| 20260904162019 | 60 | 293 | 3.0 | 6.0 | 0.00 | 0.00 | 0.00 | 87 | 1012.8 |
| 20260904161059 | 60 | 315 | 1.0 | 5.0 | 0.00 | 0.00 | 0.00 | 89 | 1012.9 |
| 20260904160019 | 59 | 315 | 1.0 | 3.0 | 0.00 | 0.00 | 0.00 | 89 | 1012.9 |
| 20260904155019 | 59 | 45 | 0.0 | 1.0 | 0.00 | 0.00 | 0.00 | 90 | 1012.9 |
| 20260904154018 | 58 | 0 | 0.0 | 1.0 | 0.00 | 0.00 | 0.00 | 91 | 1012.6 |
| 20260904153019 | 57 | 23 | 1.0 | 3.0 | 0.00 | 0.00 | 0.00 | 94 | 1012.5 |
| 20260904152058 | 57 | 113 | 0.0 | 1.0 | 0.00 | 0.00 | 0.00 | 94 | 1012.5 |
| 20260904151018 | 56 | 116 | 0.0 | 0.0 | 0.00 | 0.00 | 0.00 | 94 | 1012.4 |
| 20260904150058 | 55 | 135 | 0.0 | 2.0 | 0.00 | 0.00 | 0.00 | 95 | 1012.3 |
| 20260904145018 | 55 | 68 | 0.0 | 1.0 | 0.00 | 0.01 | 0.00 | 95 | 1012.3 |
| 20260904144038 | 54 | 68 | 1.0 | 2.0 | 0.00 | 0.01 | 0.00 | 95 | 1012.1 |
| 20260904143018 | 54 | 68 | 0.0 | 1.0 | 0.00 | 0.01 | 0.00 | 94 | 1012.0 |
| 20260904142058 | 54 | 90 | 0.0 | 1.0 | 0.00 | 0.01 | 0.00 | 94 | 1011.9 |
| 20260904141018 | 54 | 87 | 0.0 | 0.0 | 0.00 | 0.01 | 0.00 | 94 | 1011.9 |
| 20260904140039 | 54 | 87 | 0.0 | 0.0 | 0.00 | 0.01 | 0.00 | 94 | 1011.6 |
| 20260904135058 | 54 | 90 | 1.0 | 2.0 | 0.00 | 0.01 | 0.00 | 94 | 1011.5 |
| 20260904134018 | 54 | 90 | 0.0 | 1.0 | 0.00 | 0.01 | 0.00 | 94 | 1011.4 |
| 20260904133037 | 54 | 90 | 1.0 | 2.0 | 0.00 | 0.01 | 0.00 | 94 | 1011.4 |
| 20260904132018 | 54 | 90 | 2.0 | 3.0 | 0.00 | 0.01 | 0.00 | 93 | 1011.4 |
| 20260904131046 | 54 | 68 | 1.0 | 2.0 | 0.00 | 0.01 | 0.00 | 94 | 1011.2 |
| 20260904130018 | 54 | 71 | 0.0 | 0.0 | 0.00 | 0.01 | 0.00 | 94 | 1011.3 |
| 20260904125017 | 54 | 68 | 0.0 | 2.0 | 0.00 | 0.01 | 0.00 | 94 | 1011.3 |
| 20260904124018 | 54 | 68 | 0.0 | 1.0 | 0.00 | 0.01 | 0.00 | 93 | 1011.3 |
| 20260904123018 | 54 | 68 | 1.0 | 2.0 | 0.00 | 0.01 | 0.00 | 94 | 1011.1 |
| 20260904122018 | 54 | 78 | 0.0 | 0.0 | 0.00 | 0.01 | 0.00 | 93 | 1011.0 |
| 20260904121018 | 54 | 90 | 2.0 | 5.0 | 0.00 | 0.01 | 0.00 | 93 | 1010.9 |
| 20260904120018 | 54 | 74 | 0.0 | 0.0 | 0.00 | 0.01 | 0.00 | 93 | 1010.9 |
| 20260904115017 | 54 | 74 | 0.0 | 0.0 | 0.00 | 0.01 | 0.00 | 93 | 1010.9 |
| 20260904114018 | 55 | 74 | 0.0 | 0.0 | 0.00 | 0.01 | 0.00 | 93 | 1010.9 |
| 20260904113020 | 55 | 46 | 0.0 | 0.0 | 0.00 | 0.01 | 0.00 | 93 | 1010.8 |
| 20260904112100 | 55 | 68 | 1.0 | 2.0 | 0.00 | 0.01 | 0.00 | 93 | 1010.8 |
| 20260904111020 | 55 | 63 | 0.0 | 0.0 | 0.00 | 0.01 | 0.00 | 93 | 1010.7 |
| 20260904110020 | 55 | 63 | 0.0 | 0.0 | 0.00 | 0.01 | 0.00 | 92 | 1010.5 |
| 20260904105100 | 55 | 63 | 0.0 | 0.0 | 0.00 | 0.01 | 0.00 | 92 | 1010.4 |
| 20260904104020 | 55 | 68 | 0.0 | 1.0 | 0.00 | 0.01 | 0.00 | 92 | 1010.3 |
| 20260904103021 | 55 | 63 | 0.0 | 0.0 | 0.00 | 0.01 | 0.00 | 92 | 1010.4 |
| 20260904102020 | 55 | 68 | 0.0 | 2.0 | 0.00 | 0.01 | 0.00 | 92 | 1010.4 |
| 20260904101019 | 55 | 63 | 0.0 | 0.0 | 0.00 | 0.01 | 0.00 | 92 | 1010.4 |
| 20260904100019 | 55 | 63 | 0.0 | 0.0 | 0.00 | 0.01 | 0.00 | 92 | 1010.3 |
| 20260904095019 | 55 | 94 | 0.0 | 0.0 | 0.00 | 0.02 | 0.00 | 92 | 1010.3 |
| 20260904094019 | 55 | 94 | 0.0 | 0.0 | 0.00 | 0.02 | 0.00 | 92 | 1010.3 |
| 20260904093021 | 55 | 94 | 0.0 | 0.0 | 0.00 | 0.02 | 0.00 | 92 | 1010.4 |
| 20260904092020 | 55 | 36 | 0.0 | 0.0 | 0.00 | 0.02 | 0.00 | 91 | 1010.4 |
| 20260904091020 | 55 | 45 | 0.0 | 1.0 | 0.00 | 0.02 | 0.00 | 92 | 1010.4 |
| 20260904090020 | 56 | 45 | 1.0 | 2.0 | 0.00 | 0.02 | 0.00 | 91 | 1010.4 |
| 20260904085020 | 56 | 68 | 1.0 | 3.0 | 0.00 | 0.02 | 0.00 | 91 | 1010.4 |
| 20260904084019 | 56 | 113 | 0.0 | 1.0 | 0.00 | 0.02 | 0.00 | 91 | 1010.3 |
| 20260904083100 | 56 | 135 | 1.0 | 4.0 | 0.00 | 0.02 | 0.00 | 91 | 1010.4 |
| 20260904082100 | 56 | 90 | 0.0 | 1.0 | 0.00 | 0.02 | 0.00 | 91 | 1010.4 |
| 20260904081020 | 56 | 101 | 0.0 | 0.0 | 0.00 | 0.02 | 0.00 | 91 | 1010.4 |
| 20260904080019 | 56 | 90 | 0.0 | 1.0 | 0.00 | 0.02 | 0.00 | 91 | 1010.3 |
| 20260904075019 | 56 | 90 | 1.0 | 2.0 | 0.00 | 0.04 | 0.00 | 91 | 1010.3 |
| 20260904074019 | 56 | 113 | 1.0 | 2.0 | 0.00 | 0.04 | 0.00 | 90 | 1010.3 |
| 20260904073059 | 56 | 90 | 0.0 | 2.0 | 0.00 | 0.04 | 0.00 | 90 | 1010.3 |
| 20260904072027 | 56 | 90 | 0.0 | 1.0 | 0.00 | 0.04 | 0.00 | 89 | 1010.3 |
| 20260904071020 | 56 | 81 | 0.0 | 0.0 | 0.00 | 0.04 | 0.00 | 89 | 1010.3 |
| 20260904070020 | 56 | 90 | 0.0 | 1.0 | 0.00 | 0.04 | 0.04 | 89 | 1010.3 |
| 20260904065018 | 57 | 90 | 0.0 | 1.0 | 0.00 | 0.04 | 0.04 | 89 | 1010.3 |
| 20260904064019 | 57 | 68 | 0.0 | 1.0 | 0.00 | 0.04 | 0.04 | 89 | 1010.3 |
| 20260904063018 | 57 | 91 | 0.0 | 0.0 | 0.00 | 0.04 | 0.04 | 89 | 1010.3 |
| 20260904062058 | 57 | 90 | 0.0 | 1.0 | 0.00 | 0.04 | 0.04 | 89 | 1010.3 |
| 20260904061018 | 57 | 113 | 0.0 | 2.0 | 0.00 | 0.04 | 0.04 | 88 | 1010.3 |
| 20260904060058 | 57 | 127 | 0.0 | 0.0 | 0.00 | 0.04 | 0.04 | 88 | 1010.2 |
| 20260904055018 | 57 | 135 | 0.0 | 1.0 | 0.00 | 0.04 | 0.04 | 87 | 1010.2 |
| 20260904054130 | 58 | 167 | 0.0 | 0.0 | 0.00 | 0.04 | 0.04 | 87 | 1010.0 |
| 20260904053018 | 58 | 167 | 0.0 | 0.0 | 0.00 | 0.04 | 0.04 | 87 | 1010.0 |
| 20260904052058 | 58 | 167 | 0.0 | 0.0 | 0.00 | 0.04 | 0.04 | 86 | 1010.0 |
| 20260904051018 | 58 | 90 | 0.0 | 2.0 | 0.00 | 0.04 | 0.04 | 85 | 1009.9 |
| 20260904050059 | 58 | 90 | 0.0 | 2.0 | 0.00 | 0.04 | 0.04 | 85 | 1009.9 |
| 20260904045018 | 58 | 114 | 0.0 | 0.0 | 0.00 | 0.06 | 0.04 | 85 | 1009.9 |
| 20260904044019 | 58 | 69 | 0.0 | 0.0 | 0.00 | 0.06 | 0.04 | 83 | 1009.8 |
| 20260904043038 | 58 | 68 | 0.0 | 1.0 | 0.00 | 0.06 | 0.04 | 83 | 1009.8 |
| 20260904042018 | 59 | 173 | 0.0 | 0.0 | 0.00 | 0.06 | 0.04 | 84 | 1009.8 |
| 20260904041020 | 59 | 180 | 1.0 | 2.0 | 0.00 | 0.06 | 0.04 | 84 | 1009.8 |
| 20260904040019 | 59 | 90 | 1.0 | 2.0 | 0.00 | 0.06 | 0.04 | 82 | 1009.8 |
| 20260904035045 | 59 | 68 | 0.0 | 2.0 | 0.00 | 0.16 | 0.04 | 81 | 1009.8 |
| 20260904034018 | 60 | 68 | 1.0 | 3.0 | 0.00 | 0.16 | 0.04 | 81 | 1009.7 |
| 20260904033018 | 60 | 113 | 3.0 | 5.0 | 0.00 | 0.16 | 0.04 | 80 | 1009.6 |
| 20260904032058 | 61 | 113 | 1.0 | 3.0 | 0.00 | 0.16 | 0.04 | 80 | 1009.6 |
| 20260904031020 | 61 | 0 | 0.0 | 2.0 | 0.00 | 0.16 | 0.04 | 76 | 1009.5 |
| 20260904030020 | 61 | 23 | 1.0 | 2.0 | 0.00 | 0.16 | 0.04 | 75 | 1009.5 |
| 20260904025100 | 61 | 23 | 3.0 | 7.0 | 0.00 | 0.29 | 0.04 | 75 | 1009.4 |
| 20260904024035 | 62 | 0 | 5.0 | 8.0 | 0.00 | 0.29 | 0.04 | 75 | 1009.4 |
| 20260904023019 | 62 | 23 | 4.0 | 7.0 | 0.00 | 0.29 | 0.04 | 74 | 1009.5 |
| 20260904022019 | 62 | 0 | 4.0 | 9.0 | 0.00 | 0.29 | 0.04 | 74 | 1009.5 |
| 20260904021020 | 63 | 315 | 3.0 | 5.0 | 0.00 | 0.29 | 0.04 | 75 | 1009.4 |
| 20260904020020 | 63 | 23 | 2.0 | 4.0 | 0.00 | 0.29 | 0.04 | 72 | 1009.4 |
| 20260904015020 | 64 | 0 | 1.0 | 4.0 | 0.00 | 0.31 | 0.04 | 73 | 1009.3 |
| 20260904014019 | 64 | 23 | 4.0 | 8.0 | 0.00 | 0.31 | 0.04 | 70 | 1009.3 |
| 20260904013019 | 64 | 45 | 2.0 | 5.0 | 0.00 | 0.31 | 0.04 | 69 | 1009.3 |
| 20260904012019 | 64 | 23 | 2.0 | 6.0 | 0.00 | 0.31 | 0.04 | 69 | 1009.3 |
| 20260904011019 | 64 | 68 | 3.0 | 6.0 | 0.00 | 0.31 | 0.04 | 69 | 1009.1 |
| 20260904010019 | 65 | 0 | 4.0 | 10.0 | 0.00 | 0.31 | 0.04 | 69 | 1009.0 |
| 20260904005020 | 65 | 0 | 3.0 | 6.0 | 0.00 | 0.41 | 0.04 | 70 | 1009.0 |
| 20260904004020 | 65 | 23 | 4.0 | 7.0 | 0.00 | 0.41 | 0.04 | 70 | 1009.0 |
| 20260904003019 | 65 | 23 | 3.0 | 8.0 | 0.00 | 0.41 | 0.04 | 71 | 1009.1 |
| 20260904002020 | 65 | 23 | 3.0 | 8.0 | 0.00 | 0.41 | 0.04 | 71 | 1009.1 |
| 20260904001019 | 64 | 45 | 3.0 | 7.0 | 0.00 | 0.41 | 0.04 | 73 | 1009.1 |
| 20260904000019 | 64 | 23 | 5.0 | 9.0 | 0.00 | 0.41 | 0.04 | 73 | 1009.1 |
| 20260903235019 | 64 | 0 | 6.0 | 10.0 | 0.00 | 0.50 | 0.04 | 74 | 1009.1 |
| 20260903234020 | 64 | 23 | 3.0 | 7.0 | 0.00 | 0.50 | 0.04 | 75 | 1009.1 |
| 20260903233028 | 64 | 0 | 4.0 | 8.0 | 0.00 | 0.50 | 0.04 | 73 | 1009.2 |
| 20260903232059 | 64 | 0 | 6.0 | 10.0 | 0.00 | 0.50 | 0.04 | 73 | 1009.2 |
| 20260903231019 | 64 | 0 | 6.0 | 9.0 | 0.00 | 0.50 | 0.04 | 73 | 1009.3 |
| 20260903230019 | 64 | 0 | 5.0 | 8.0 | 0.00 | 0.50 | 0.04 | 74 | 1009.3 |